Wind_Speed
9 9 10 11 12 9 8 9 11 8 4 5 9 12 14 16 16 15 14 13 9 5 6 8 9 9 11 15 18 19 20 20 22 20 17 16 18 20 20 20 20 20 20 20
12 13 13 14 13 11 9 8 8 7 5 4 3 7 10 13 15 18 17 16 14 12 12 14 15 14 15 17 19 20 21 20 20 19 17 17 18 19 19 19 20 19 18 19
16 16 16 17 17 15 14 13 12 11 12 11 7 3 4 9 11 13 16 19 21 19 16 16 17 18 19 19 19 19 18 18 18 19 19 19 20 20 21 21 20 20 20 19
23 22 20 20 20 20 19 17 14 13 13 13 11 8 7 5 4 6 8 10 12 13 13 14 16 17 18 17 16 16 17 18 19 20 20 20 20 20 21 22 23 23 22 21
25 23 23 21 20 20 21 20 17 13 12 13 13 11 11 10 8 8 8 5 4 5 7 8 9 11 12 14 15 16 18 19 20 21 21 20 19 19 21 23 22 22 22 22
25 23 23 21 17 16 17 18 17 13 11 12 13 13 13 12 9 8 9 7 4 2 2 4 6 9 12 14 15 16 17 19 21 21 20 19 19 21 22 22 21 20 21 22
24 22 21 19 16 13 13 15 15 13 11 14 16 15 15 14 11 9 8 6 3 2 3 6 9 12 14 15 16 17 18 19 20 19 19 20 20 20 20 20 19 19 20 21
21 19 17 15 13 12 12 14 14 14 14 15 16 15 14 12 10 8 7 6 6 7 9 11 13 14 15 16 15 16 17 17 17 17 18 19 18 17 17 17 17 18 20 21
17 15 14 12 11 10 10 10 11 12 13 13 13 13 12 12 10 10 10 11 11 12 12 13 13 14 15 16 16 17 17 16 16 17 18 18 17 16 16 17 18 19 21 23
14 11 8 7 7 7 7 6 6 7 9 10 10 10 10 10 9 10 12 13 13 13 13 14 14 15 16 17 18 18 17 17 17 18 18 18 17 16 17 18 18 19 20 22
15 11 7 3 1 2 4 4 4 5 5 6 7 7 7 7 8 9 12 13 12 13 14 14 15 15 16 17 17 16 15 16 16 17 17 16 15 15 15 16 17 18 19 20
20 16 10 6 2 2 3 3 4 4 4 3 3 4 5 6 7 9 11 12 13 14 14 14 15 17 18 17 15 14 14 14 14 15 15 15 14 13 14 15 15 15 16 17
27 25 18 9 4 4 6 4 3 3 3 4 2 1 4 5 6 9 10 12 14 15 15 16 17 18 19 18 16 16 16 16 16 16 15 14 13 13 14 14 13 14 14 15
28 28 26 19 7 4 6 7 6 5 4 6 5 3 4 5 6 7 9 11 14 16 16 16 16 18 19 18 17 17 18 18 18 18 17 15 14 14 14 15 15 14 15 15
27 29 30 27 16 6 6 10 10 8 8 8 7 5 4 5 5 7 8 10 13 15 15 15 16 18 18 18 17 17 18 20 20 20 19 18 17 16 16 16 16 16 16 17
26 28 30 31 26 14 6 9 12 12 10 10 10 8 6 5 5 6 7 9 11 13 13 13 15 17 18 18 17 17 18 19 20 20 21 21 20 19 18 17 17 16 17 17
24 25 28 31 30 23 12 6 10 12 13 13 13 11 9 7 6 5 5 7 9 10 11 12 13 15 17 17 17 17 18 18 19 20 20 21 21 20 20 19 19 19 18 19
22 23 24 27 30 28 21 10 7 10 12 14 15 14 12 10 8 6 4 5 7 8 9 10 12 13 14 15 16 16 17 17 17 17 17 18 19 19 20 20 20 20 20 21
20 21 22 23 26 28 26 20 11 9 11 13 15 15 15 14 12 9 5 2 4 6 7 9 10 11 12 13 14 15 16 16 16 15 15 14 15 16 17 18 18 19 20 20
18 19 20 21 22 25 26 25 20 12 11 13 14 15 15 16 14 12 8 4 2 3 5 7 8 9 10 11 12 13 14 14 14 14 14 14 14 14 15 16 16 17 18 19
17 19 20 20 21 22 25 26 25 21 13 11 14 15 15 16 15 13 11 8 6 3 3 5 7 8 8 8 9 11 12 13 13 13 14 14 14 14 14 14 15 15 16 16
17 18 19 20 21 21 23 25 26 25 20 12 11 15 16 16 17 16 14 12 10 7 4 4 6 7 7 6 7 8 10 11 11 12 13 14 15 14 14 13 13 12 13 13
18 18 18 20 21 21 22 23 25 26 24 18 11 13 16 18 19 19 18 16 14 11 8 6 5 6 7 5 5 6 7 8 9 10 12 13 15 15 15 14 13 12 12 12
20 19 18 19 21 22 22 22 24 25 25 22 18 14 15 18 21 23 22 21 18 16 13 10 8 7 7 6 4 4 4 5 6 8 10 12 14 14 14 13 13 12 13 13
23 21 19 20 22 23 23 23 23 25 26 25 23 20 17 17 20 23 25 25 23 21 18 15 12 10 9 8 6 3 3 4 6 8 10 12 14 14 13 11 11 11 11 12
24 22 22 22 23 24 25 24 24 25 26 27 27 25 23 19 17 20 24 26 26 24 22 19 16 13 12 11 9 5 4 5 6 8 10 12 14 14 12 10 9 9 9 10
28 26 26 26 25 25 26 26 26 26 26 28 29 29 27 24 19 16 20 24 26 26 24 22 19 17 15 14 12 9 7 7 7 8 10 12 14 13 12 10 9 8 8 8
Wind_Direction
38 66 74 80 97 121 146 151 166 175 209 265 273 266 260 255 247 240 241 249 252 257 261 252 254 261 271 278 280 291 304 301 301 307 305 301 300 300 295 284 278 273 270 272
65 71 79 87 96 113 133 134 131 116 80 33 322 273 261 253 246 238 235 238 250 265 276 271 269 272 277 283 288 298 303 303 307 313 312 309 305 302 297 293 286 279 275 273
75 77 80 79 85 95 101 103 101 94 79 65 49 30 256 242 237 233 236 241 246 254 260 263 268 273 278 286 292 297 301 304 308 307 306 307 305 303 303 302 298 292 288 285
73 69 65 71 83 88 90 90 93 96 96 73 58 63 79 101 156 182 204 224 235 241 251 263 272 276 281 286 292 296 298 301 305 307 307 306 303 302 303 302 298 293 288 284
67 62 60 68 83 88 84 80 79 92 101 82 69 62 65 72 91 119 134 158 200 235 256 268 272 274 278 285 293 299 303 307 309 309 308 306 304 303 304 303 298 292 288 284
66 61 61 69 76 81 71 59 57 73 97 93 88 75 69 70 75 90 100 108 120 157 229 253 266 277 287 295 302 307 309 311 312 311 310 309 308 308 308 306 300 293 289 285
62 61 63 66 68 66 59 47 50 65 89 95 92 87 84 81 73 72 75 74 60 358 311 303 305 306 305 305 307 308 311 313 314 316 316 316 314 312 311 309 303 297 292 288
60 63 65 66 63 59 56 52 62 77 89 95 93 88 81 72 61 49 40 24 359 337 325 320 317 313 308 305 305 307 308 312 316 320 321 319 316 314 314 315 312 306 300 295
56 60 62 62 57 56 56 62 74 90 99 102 97 86 74 62 46 28 14 3 350 338 331 327 324 319 316 313 310 309 307 309 314 317 317 316 312 311 314 317 316 312 308 304
46 45 47 55 54 54 62 80 95 103 106 105 92 77 65 54 39 18 3 354 349 346 343 340 336 333 330 326 321 316 313 313 314 317 319 318 315 312 314 316 317 317 315 313
27 20 10 355 13 75 90 91 106 124 122 108 90 68 52 41 23 6 358 358 1 359 354 350 348 347 343 337 329 325 322 320 321 324 327 327 324 322 322 322 320 320 321 321
23 13 359 345 297 210 166 122 109 129 158 149 110 67 38 22 7 359 0 3 2 359 357 355 353 354 353 352 350 348 346 346 345 345 344 343 340 337 335 332 331 332 334 335
25 23 13 352 312 234 202 187 170 160 197 219 212 2 7 7 5 2 2 3 4 4 2 360 1 2 2 4 7 9 11 12 9 7 5 2 358 354 352 354 356 356 358 1
16 18 18 13 350 269 223 217 217 221 235 235 238 276 329 346 357 3 4 4 5 4 4 6 9 11 11 14 19 22 25 26 25 25 25 23 20 17 16 19 21 21 21 22
7 11 14 14 9 327 250 229 227 236 245 240 236 248 291 321 340 355 1 3 4 6 9 12 16 18 20 23 28 32 34 35 36 35 34 33 32 31 29 29 30 30 27 26
0 5 10 13 12 1 299 243 234 236 243 240 233 236 258 289 312 333 350 1 7 11 15 17 19 21 23 27 32 35 36 36 37 37 37 38 40 41 41 41 39 36 32 31
356 0 5 9 11 10 355 283 248 243 244 243 237 238 248 263 275 298 336 1 12 17 19 19 20 22 24 27 31 34 35 34 34 35 35 37 41 44 47 48 47 44 41 40
352 354 358 3 8 11 9 350 286 255 252 251 246 245 248 256 260 268 304 353 8 17 19 19 21 24 26 28 30 32 32 30 29 32 34 36 40 43 46 47 48 47 46 44
342 346 350 354 360 5 10 7 345 287 265 262 257 256 254 254 255 254 262 310 355 7 13 14 18 24 27 28 28 28 28 27 26 29 32 36 40 44 45 46 46 46 46 45
328 335 339 344 349 355 2 7 5 342 284 263 259 261 260 253 249 248 249 256 289 341 2 6 13 20 23 24 22 23 24 25 26 28 32 37 41 44 44 45 45 44 44 43
311 321 327 333 338 343 350 357 3 1 338 281 258 257 260 252 247 248 249 253 257 274 328 356 4 9 14 19 19 19 21 24 28 31 33 36 39 40 41 41 41 40 39 39
296 307 315 322 327 332 338 345 353 359 357 332 274 259 260 253 247 248 251 255 258 261 278 320 344 353 0 13 17 17 19 24 33 37 37 34 33 33 34 34 33 32 32 34
284 293 303 310 315 321 326 332 339 348 354 351 321 277 265 257 251 248 249 252 255 258 263 277 307 328 338 353 8 14 17 25 32 34 31 28 26 26 28 30 31 31 32 33
276 281 290 299 304 308 314 318 324 333 342 348 342 315 286 268 257 251 249 248 251 254 257 261 273 295 310 319 337 359 6 11 15 13 13 13 14 14 16 21 26 30 31 32
266 271 280 289 294 298 301 306 311 318 326 334 339 337 318 291 267 254 249 248 250 253 253 253 256 268 284 293 299 315 323 329 338 343 348 355 359 2 5 8 13 19 24 28
256 263 272 280 285 288 291 294 299 305 312 319 327 332 333 322 291 261 249 247 249 250 250 250 250 255 266 275 280 280 279 289 307 320 329 339 347 353 359 4 4 6 11 15
251 259 266 271 275 278 282 285 288 293 299 306 313 321 327 330 319 282 253 246 246 247 247 248 248 248 256 264 270 271 265 268 282 299 313 327 338 346 353 358 359 1 5 10
Height
5735 5735 5735 5736 5737 5741 5744 5747 5751 5755 5758 5760 5760 5760 5761 5762 5766 5770 5772 5774 5776 5780 5782 5784 5786 5787 5787 5787 5785 5783 5782 5780 5777 5776 5775 5773 5771 5769 5767 5766 5765 5765 5764 5763
5740 5740 5740 5741 5742 5744 5747 5750 5754 5757 5760 5759 5758 5758 5758 5759 5762 5766 5770 5773 5774 5776 5778 5779 5780 5781 5782 5782 5781 5780 5778 5776 5774 5772 5771 5769 5767 5765 5763 5761 5760 5759 5758 5757
5748 5747 5748 5749 5749 5751 5753 5755 5758 5759 5761 5760 5759 5758 5757 5757 5759 5763 5767 5770 5772 5774 5775 5775 5775 5776 5777 5777 5777 5775 5774 5772 5771 5769 5768 5766 5763 5761 5759 5757 5755 5753 5751 5750
5757 5758 5757 5759 5757 5758 5759 5760 5761 5761 5762 5761 5760 5759 5759 5759 5759 5762 5765 5767 5769 5771 5772 5772 5772 5773 5773 5773 5773 5772 5770 5769 5768 5766 5764 5761 5759 5756 5753 5751 5749 5746 5745 5744
5766 5766 5765 5765 5764 5765 5765 5765 5765 5764 5764 5764 5764 5764 5764 5764 5764 5765 5766 5768 5770 5771 5772 5772 5772 5772 5771 5770 5770 5768 5767 5765 5763 5760 5758 5755 5752 5750 5747 5745 5742 5740 5738 5737
5774 5773 5771 5772 5771 5770 5771 5769 5768 5768 5767 5767 5767 5769 5770 5769 5770 5770 5770 5771 5771 5772 5772 5773 5773 5772 5770 5769 5767 5765 5763 5760 5757 5755 5752 5749 5746 5744 5741 5738 5736 5734 5732 5731
5780 5778 5777 5777 5776 5775 5775 5775 5772 5771 5771 5771 5772 5773 5774 5774 5775 5775 5774 5774 5774 5773 5773 5772 5771 5770 5768 5766 5764 5762 5759 5756 5753 5750 5747 5744 5741 5739 5736 5733 5731 5729 5727 5725
5786 5784 5784 5781 5780 5779 5779 5777 5776 5775 5775 5776 5776 5777 5777 5778 5777 5777 5777 5776 5775 5774 5772 5770 5769 5767 5765 5763 5761 5759 5756 5753 5750 5747 5744 5741 5738 5735 5732 5729 5726 5724 5722 5720
5792 5790 5787 5784 5782 5781 5780 5780 5779 5779 5779 5779 5778 5778 5778 5778 5778 5777 5777 5776 5774 5773 5771 5769 5767 5765 5763 5760 5758 5755 5753 5750 5747 5744 5741 5737 5734 5731 5728 5725 5723 5720 5717 5714
5794 5792 5789 5787 5785 5783 5781 5781 5781 5781 5781 5780 5780 5779 5779 5778 5778 5778 5777 5776 5774 5772 5770 5768 5766 5763 5760 5757 5754 5752 5749 5746 5743 5740 5736 5733 5729 5727 5724 5721 5718 5715 5712 5708
5797 5794 5790 5788 5785 5784 5783 5782 5781 5781 5781 5781 5781 5782 5781 5780 5780 5779 5778 5776 5774 5772 5769 5767 5764 5762 5758 5755 5752 5748 5746 5742 5739 5736 5732 5729 5726 5723 5720 5718 5715 5711 5708 5704
5798 5794 5791 5788 5785 5784 5784 5783 5782 5782 5782 5782 5782 5782 5782 5781 5781 5779 5778 5776 5774 5771 5769 5766 5763 5760 5756 5753 5749 5746 5743 5740 5736 5733 5729 5726 5723 5720 5717 5714 5711 5708 5705 5701
5800 5795 5791 5787 5785 5784 5783 5783 5783 5782 5782 5782 5782 5782 5782 5781 5780 5779 5778 5776 5774 5771 5768 5765 5762 5759 5755 5752 5748 5745 5742 5738 5735 5731 5728 5724 5721 5718 5715 5712 5709 5707 5703 5700
5801 5796 5791 5786 5784 5783 5783 5782 5782 5782 5782 5781 5781 5782 5782 5781 5780 5779 5777 5776 5774 5771 5769 5766 5762 5759 5756 5752 5749 5746 5743 5739 5736 5732 5728 5724 5721 5718 5715 5713 5710 5707 5704 5701
5801 5796 5791 5786 5782 5780 5780 5780 5781 5781 5780 5780 5780 5780 5780 5780 5780 5779 5777 5776 5774 5772 5769 5767 5764 5760 5757 5754 5751 5748 5745 5742 5738 5734 5730 5727 5723 5720 5717 5714 5712 5709 5706 5703
5803 5797 5792 5787 5782 5778 5777 5777 5778 5778 5778 5778 5778 5778 5778 5779 5779 5778 5777 5776 5774 5772 5770 5768 5765 5762 5759 5756 5753 5751 5748 5745 5741 5738 5734 5730 5727 5724 5721 5718 5715 5712 5710 5707
5804 5799 5793 5788 5783 5778 5775 5774 5774 5775 5775 5775 5775 5776 5776 5777 5777 5778 5777 5776 5774 5772 5771 5769 5767 5764 5761 5758 5756 5753 5750 5748 5745 5741 5738 5734 5731 5728 5725 5723 5720 5717 5714 5711
5804 5800 5795 5790 5785 5780 5776 5773 5772 5772 5773 5773 5773 5774 5775 5775 5776 5777 5777 5776 5775 5773 5772 5770 5768 5766 5763 5761 5758 5755 5753 5751 5748 5745 5742 5739 5736 5733 5730 5728 5725 5722 5719 5716
5803 5799 5795 5790 5785 5781 5777 5773 5771 5770 5770 5771 5771 5772 5773 5773 5774 5775 5776 5775 5775 5773 5772 5771 5769 5767 5765 5763 5760 5757 5755 5753 5751 5748 5745 5743 5740 5737 5735 5733 5730 5727 5725 5722
5802 5798 5794 5790 5786 5782 5778 5774 5771 5769 5768 5768 5769 5769 5770 5771 5772 5773 5775 5775 5774 5773 5772 5771 5770 5768 5766 5764 5762 5760 5757 5755 5753 5751 5748 5746 5744 5741 5739 5737 5734 5732 5729 5727
5799 5796 5793 5789 5785 5781 5778 5774 5771 5768 5766 5765 5766 5767 5768 5769 5770 5771 5772 5773 5773 5773 5772 5771 5770 5768 5766 5764 5763 5762 5759 5757 5755 5753 5751 5749 5747 5745 5742 5740 5738 5736 5733 5731
5795 5793 5790 5787 5784 5781 5777 5773 5770 5767 5764 5763 5762 5764 5765 5766 5767 5768 5769 5770 5771 5772 5771 5770 5769 5768 5767 5765 5764 5763 5761 5759 5757 5755 5754 5752 5750 5748 5746 5743 5741 5739 5737 5735
5790 5789 5787 5784 5782 5779 5776 5773 5769 5766 5764 5762 5761 5761 5762 5762 5763 5764 5765 5767 5768 5769 5769 5769 5768 5767 5766 5765 5764 5763 5762 5761 5759 5758 5756 5754 5753 5751 5749 5746 5744 5742 5740 5738
5784 5784 5782 5780 5778 5776 5774 5771 5768 5765 5763 5760 5759 5758 5758 5758 5758 5759 5760 5762 5763 5765 5767 5767 5767 5766 5765 5765 5764 5763 5763 5762 5761 5759 5758 5756 5754 5752 5750 5749 5746 5744 5742 5740
5777 5777 5777 5775 5774 5772 5770 5768 5766 5763 5761 5758 5756 5754 5753 5752 5752 5752 5754 5756 5758 5761 5763 5764 5765 5764 5764 5763 5763 5762 5762 5761 5761 5760 5759 5757 5755 5753 5751 5749 5748 5746 5744 5742
5769 5770 5770 5769 5768 5766 5765 5764 5762 5760 5758 5756 5753 5751 5749 5747 5745 5745 5747 5750 5753 5755 5758 5760 5762 5762 5762 5761 5761 5761 5760 5760 5760 5760 5759 5758 5755 5753 5751 5750 5748 5747 5745 5743
5760 5761 5762 5762 5761 5760 5759 5758 5757 5756 5754 5752 5750 5747 5745 5742 5740 5739 5740 5743 5746 5749 5752 5755 5757 5759 5759 5759 5759 5758 5759 5759 5758 5758 5758 5757 5755 5753 5751 5750 5748 5747 5745 5743